Theta_e
312 312 311 310 310 310 311 313 314 314 314 316 317 317 317 318 318 317 322 325 321 318 317 317 318 318 319 320 321 321 321 320 319 318 317 317 317 317 316 316 316 315 314 315 316 317 318 320 321 322 323 323 324 324 325 325 325 325 325 325 326 325 326 326 326 325 325 325 325 324 323 322 322 322 321 322 323 323 324 324 323 323 324 323 323 322 323
311 312 312 312 311 311 311 312 312 313 314 315 316 317 317 318 320 321 322 321 316 314 315 316 315 316 317 318 318 319 319 317 316 316 315 315 314 314 314 314 313 313 312 314 314 313 315 316 316 318 319 321 323 323 324 324 324 324 324 324 325 325 325 326 325 325 325 324 324 324 323 321 320 322 322 323 325 324 324 323 323 323 323 323 323 323 323
313 312 313 312 312 313 313 312 313 313 314 315 316 317 317 317 319 320 319 318 314 312 313 314 314 314 315 316 317 317 316 315 314 314 313 313 313 312 312 312 312 312 312 312 312 311 312 312 313 314 315 318 319 321 322 323 323 323 323 324 324 324 325 325 324 324 324 323 323 323 323 322 321 322 323 324 325 324 323 323 323 323 323 323 323 323 322
314 313 312 313 313 313 313 314 315 314 314 315 314 313 313 316 319 319 318 317 314 312 312 313 313 312 311 311 313 313 312 311 312 312 312 312 312 311 311 311 310 310 310 311 311 310 310 310 311 311 312 314 315 317 320 321 322 322 323 323 323 323 323 323 323 323 323 323 323 323 323 323 322 323 323 323 323 323 323 323 324 324 323 323 323 323 323
315 312 313 314 314 314 313 313 313 313 312 312 311 309 309 311 314 316 316 315 313 311 311 311 310 308 307 307 308 308 308 308 307 308 309 309 309 309 309 309 309 309 309 309 309 309 309 309 309 310 310 311 312 312 314 316 317 318 318 318 319 320 321 322 322 323 322 323 322 322 323 322 322 322 323 323 323 323 323 323 323 324 323 323 323 322 322
314 313 313 314 315 316 313 309 308 310 311 311 311 309 308 308 309 310 311 311 310 310 310 309 307 305 304 303 303 303 305 305 304 305 305 305 305 306 306 306 307 308 308 308 308 307 307 307 308 308 309 309 310 310 310 311 311 311 312 312 313 314 316 318 320 321 322 322 323 323 323 322 322 322 322 323 323 322 322 321 320 321 322 322 322 322 322
314 313 313 316 317 314 310 307 307 309 309 309 309 307 307 307 308 308 308 307 306 306 305 304 303 302 301 301 300 301 302 301 302 302 302 303 303 303 303 304 305 306 306 306 307 306 306 306 306 306 307 308 308 309 309 310 310 310 310 310 310 311 311 313 314 315 317 319 322 323 322 321 322 322 322 323 322 321 320 320 319 319 321 321 320 319 318
313 313 314 316 314 310 307 306 307 307 308 308 308 308 306 306 307 308 307 305 304 303 302 301 301 301 301 300 300 301 301 300 301 301 301 301 302 302 302 303 304 304 304 304 305 305 304 304 305 305 306 307 307 307 308 309 309 310 310 310 310 310 310 310 310 311 312 314 316 318 319 319 320 321 321 322 322 321 320 320 320 320 319 318 317 316 315
310 313 314 312 310 309 308 307 306 306 307 308 309 308 306 305 305 307 306 305 304 303 302 301 301 302 302 302 301 301 301 301 302 303 303 302 301 300 301 301 302 303 303 303 303 304 303 303 303 304 305 305 306 306 307 307 308 309 309 309 309 309 309 309 309 309 310 310 311 313 314 316 317 318 320 320 321 320 319 318 318 317 316 315 314 313 312
308 311 312 311 311 312 310 307 305 305 305 306 307 308 306 303 304 305 305 304 303 303 303 303 303 304 305 304 301 300 300 300 301 302 302 302 302 301 301 301 301 301 302 302 302 303 303 303 303 303 303 304 305 305 305 306 307 308 308 308 308 308 309 309 309 309 309 309 310 310 311 313 315 316 317 317 317 317 316 315 315 314 313 312 311 310 310
308 310 311 311 311 311 308 306 305 304 304 305 307 309 308 304 302 303 304 304 303 303 303 303 304 306 307 305 301 300 300 300 301 301 301 301 301 301 301 301 301 301 301 301 302 302 303 303 303 303 303 303 304 304 304 305 306 306 307 307 307 307 308 308 308 309 309 309 309 310 310 311 312 313 314 313 314 314 313 312 312 311 310 309 308 309 309
309 310 310 311 311 308 306 305 303 302 303 304 307 310 308 304 302 303 303 303 303 303 303 304 304 305 306 304 301 300 300 301 301 301 301 301 301 300 300 300 300 300 301 301 301 301 302 302 302 302 302 302 303 303 303 304 305 305 305 305 305 306 306 307 307 308 308 308 308 309 310 310 311 311 312 311 312 312 311 310 310 309 308 308 308 309 309
310 310 311 310 309 306 304 304 303 302 303 305 307 308 305 302 302 302 303 303 303 303 303 304 303 302 302 301 300 300 300 300 301 300 300 300 300 300 300 299 299 300 300 300 301 301 301 301 301 301 302 302 303 302 302 304 305 304 304 304 304 305 305 306 306 307 307 308 308 308 309 309 309 310 310 311 310 310 310 309 309 309 308 308 309 309 309
308 309 310 310 308 304 303 303 303 303 305 307 306 304 302 301 302 302 302 302 302 302 302 302 302 301 300 300 300 300 300 300 301 300 300 300 300 300 300 299 299 299 300 300 300 300 300 300 301 301 301 301 302 302 302 303 304 303 303 304 304 304 304 305 305 306 306 307 307 307 308 308 308 309 309 310 311 310 309 309 309 310 309 310 310 309 308
306 307 308 310 308 303 303 303 303 304 305 304 302 301 301 301 301 301 302 301 301 302 301 301 301 300 300 300 300 300 300 300 301 300 300 300 300 299 299 299 298 298 298 299 300 299 300 300 300 301 301 301 301 301 302 303 303 302 302 302 303 303 304 304 304 305 305 306 306 307 307 307 308 308 309 310 310 310 310 310 310 310 310 309 310 309 308
306 307 306 306 304 303 303 304 304 303 303 302 301 301 302 301 302 302 302 301 301 301 301 301 301 301 300 300 300 300 299 300 300 299 299 298 298 298 298 298 298 297 297 298 299 299 299 299 299 300 301 301 301 301 301 303 302 301 301 302 302 302 303 303 304 304 304 304 305 306 305 306 306 307 308 309 309 310 310 310 309 309 309 309 309 309 309
305 305 303 302 302 302 302 303 302 302 302 302 302 302 301 301 301 301 301 300 300 300 300 300 300 300 299 299 299 298 298 298 298 298 297 297 297 296 297 297 296 296 296 297 297 298 298 298 298 299 299 300 301 301 302 302 301 301 301 301 301 302 302 302 303 303 303 303 304 304 304 305 305 306 307 308 308 308 309 309 309 309 309 309 309 309 308
302 303 302 302 302 301 301 301 301 301 301 301 300 300 300 300 299 299 299 299 298 298 298 299 299 298 297 297 297 297 296 297 297 296 295 295 295 295 295 295 295 295 295 296 296 296 297 297 297 298 298 299 299 300 300 301 300 300 301 300 301 301 301 302 302 302 302 302 303 303 304 304 304 305 305 306 307 307 308 308 309 309 309 309 309 308 308
302 303 302 302 302 301 301 301 300 300 299 299 299 299 298 298 298 298 298 298 298 298 297 296 297 297 296 295 295 295 294 295 295 295 294 294 294 294 294 294 294 294 295 295 296 296 296 296 296 296 297 297 298 299 299 299 300 300 300 300 300 301 301 301 301 301 302 302 302 302 302 302 303 303 304 305 305 306 306 308 308 308 308 308 308 309 308
302 302 302 301 301 301 300 300 300 299 299 299 299 298 298 298 298 298 299 298 298 298 297 296 296 296 295 295 294 294 294 295 295 294 294 294 294 294 294 294 294 294 294 295 295 295 295 295 295 295 296 296 297 297 298 298 298 299 299 299 300 300 300 300 300 301 301 301 301 301 301 301 302 303 303 303 304 305 305 306 307 307 308 307 307 308 308
301 301 300 300 300 300 299 300 300 300 299 299 299 299 299 299 298 298 298 298 298 297 297 296 296 295 295 295 295 294 295 295 295 295 294 294 294 294 294 294 294 294 294 294 294 294 294 294 294 295 295 295 296 296 297 297 297 297 298 298 299 299 299 299 300 300 300 300 300 300 301 301 302 302 302 302 303 304 304 305 305 305 306 307 307 308 307
300 300 300 300 300 300 300 300 300 300 299 299 299 299 299 298 298 298 298 298 297 297 296 296 296 295 295 295 296 295 295 295 295 294 294 294 294 294 293 293 293 293 293 293 293 293 294 294 294 294 294 294 295 295 295 295 296 296 296 297 297 298 298 299 299 299 299 300 300 300 301 301 301 301 301 301 301 301 301 302 301 301 302 304 306 307 307
300 300 300 300 299 299 300 300 299 299 299 299 299 299 298 298 298 298 297 297 297 296 296 295 295 295 295 295 295 295 295 295 294 294 294 293 293 293 292 292 293 293 293 293 293 293 293 293 293 293 294 294 294 294 294 294 294 295 295 295 296 296 297 297 297 298 298 298 299 299 299 300 300 301 301 301 300 299 298 298 298 298 299 301 302 303 305
299 300 300 299 299 299 299 299 299 299 299 299 298 297 297 297 297 297 297 296 295 295 295 295 295 295 295 294 294 294 294 294 293 293 293 292 292 292 292 292 292 293 293 293 293 293 293 293 293 293 294 294 294 294 294 294 295 295 295 295 295 295 296 296 296 296 296 297 297 298 298 298 299 299 300 300 300 300 299 298 297 297 298 299 300 301 302
298 299 299 299 298 298 298 299 299 299 299 299 298 297 297 297 297 296 296 296 295 295 295 295 295 294 294 293 293 294 293 293 292 292 292 292 292 292 292 292 292 293 293 293 293 293 294 294 294 294 294 294 294 294 294 294 294 295 295 295 295 295 296 296 296 296 296 296 296 297 297 298 298 298 299 299 300 300 300 299 298 297 297 298 299 300 301
298 298 298 298 298 298 298 298 298 299 299 298 298 298 297 296 295 295 295 295 295 294 294 294 294 293 293 293 293 293 292 292 292 292 292 292 292 292 292 292 292 292 293 293 293 293 293 293 293 293 294 294 294 294 294 294 294 294 294 294 295 295 295 295 295 296 296 296 296 297 297 297 297 298 298 298 299 299 300 300 299 298 297 297 298 299 300
297 298 298 297 298 298 298 297 298 298 298 297 297 297 297 295 295 295 295 294 294 294 294 293 293 293 293 293 293 292 292 292 292 292 293 293 292 292 292 292 292 292 292 292 292 293 292 292 293 293 293 293 293 293 293 293 293 293 294 294 294 295 295 295 295 295 295 296 296 296 296 296 296 297 297 297 297 298 298 299 300 300 299 298 297 298 299
297 298 298 297 297 297 298 298 298 298 297 297 297 296 296 295 295 294 294 294 294 294 293 293 293 293 293 293 293 292 292 292 292 293 293 293 292 292 292 292 292 292 292 292 292 292 292 292 293 293 293 293 293 292 292 292 293 293 294 294 294 295 295 295 295 295 295 295 295 295 296 296 296 296 296 296 297 297 297 298 298 299 300 300 299 298 299
298 298 298 298 297 298 298 298 298 297 297 297 296 296 295 295 294 294 294 294 294 294 293 293 293 293 293 293 293 292 292 292 293 293 293 292 292 292 291 291 291 292 292 292 292 292 292 293 293 294 293 293 293 292 292 292 293 293 294 294 294 294 294 294 294 294 294 295 294 295 295 295 295 295 295 295 295 296 296 297 298 298 299 301 300 298 298
298 298 298 298 298 298 298 297 296 296 296 296 296 295 295 294 293 293 293 294 294 294 293 293 293 293 293 293 293 292 292 292 293 293 293 292 292 292 291 291 292 293 293 293 293 293 293 293 293 293 293 293 292 292 292 292 293 293 294 294 294 294 294 294 293 293 293 294 294 294 294 294 294 294 295 295 294 294 295 296 297 297 298 300 300 299 299
298 298 298 298 297 297 297 296 296 296 296 296 296 295 294 293 293 292 293 293 294 293 293 293 293 293 292 292 292 292 292 292 292 292 291 291 291 291 290 290 291 292 293 293 293 293 293 293 293 293 292 292 292 292 293 293 293 293 294 294 294 294 293 293 292 292 293 293 293 293 293 293 294 294 294 294 294 294 294 294 295 297 298 298 299 300 299
298 298 298 298 297 297 296 296 296 296 295 295 295 294 294 293 292 292 292 293 293 293 292 292 292 292 292 292 292 291 291 290 290 290 290 290 290 289 290 290 291 291 291 292 292 293 294 294 293 293 293 293 293 294 294 294 294 294 294 294 294 293 293 292 292 292 293 293 293 292 292 293 293 293 293 293 294 294 293 294 295 296 297 298 298 299 299
297 298 297 297 297 297 296 296 296 295 295 295 295 295 294 293 292 292 292 292 292 292 292 292 292 291 291 290 291 290 290 290 290 290 289 289 290 290 290 290 290 291 291 292 293 294 294 294 294 294 294 294 295 295 295 295 294 294 294 294 294 293 292 292 292 292 292 292 292 292 292 292 292 292 293 293 293 293 293 294 295 296 297 298 299 298 297
297 297 297 297 297 297 296 296 296 295 295 295 295 294 293 293 293 293 293 292 292 292 292 292 291 290 289 289 290 289 289 290 291 291 289 289 290 290 290 290 290 291 292 293 294 294 294 294 294 293 293 294 296 296 295 295 295 295 294 294 294 293 293 292 292 291 291 291 292 292 292 292 292 292 292 292 293 293 293 294 296 297 297 297 297 295 294
297 297 297 298 298 297 296 296 296 296 295 295 294 294 294 294 294 294 294 293 293 293 292 292 291 289 289 289 289 289 289 289 290 289 288 288 289 289 289 290 291 291 293 294 293 293 293 294 293 292 292 294 296 296 295 294 295 296 295 294 294 294 293 293 292 291 291 291 291 291 291 291 291 291 291 292 292 293 293 294 295 296 296 295 294 292 291
297 297 298 298 297 297 296 296 296 296 296 295 294 294 294 294 294 294 294 294 293 293 293 292 290 288 289 290 289 289 288 288 289 289 288 288 289 289 290 290 290 291 292 293 293 292 293 293 292 292 293 295 296 296 295 294 295 295 296 295 295 294 294 293 292 292 291 291 291 291 291 291 291 291 291 292 293 293 293 293 293 294 293 293 291 290 290
297 297 298 298 297 297 296 296 295 295 295 295 294 294 294 294 294 294 293 293 293 293 292 291 289 289 289 289 289 288 288 288 289 289 288 288 289 289 290 290 291 291 293 293 292 291 292 292 292 293 294 295 295 295 295 294 295 295 296 295 295 294 294 293 293 292 292 291 291 291 291 291 291 291 291 292 292 292 292 292 292 292 291 291 291 291 291
297 297 298 298 297 297 296 296 295 295 295 295 295 294 294 294 294 294 294 293 292 292 291 289 289 289 289 289 288 287 287 288 288 288 288 288 289 290 291 291 291 291 292 291 290 290 291 292 292 293 295 295 295 295 294 294 295 296 296 295 295 294 294 293 293 292 292 291 291 291 291 291 291 291 291 291 291 291 291 291 291 291 291 291 292 292 292
298 298 298 298 297 297 296 296 296 296 295 295 295 295 294 294 294 294 294 294 293 292 291 290 290 291 291 290 290 289 288 288 288 288 288 288 289 290 290 290 289 289 289 289 289 290 291 291 292 293 294 294 294 294 294 294 295 296 296 296 295 294 294 294 293 293 292 292 291 291 291 291 291 290 290 290 290 290 290 290 290 290 290 291 291 291 291
298 298 298 298 297 297 296 296 296 295 295 295 295 295 294 294 294 294 295 294 293 291 291 291 292 292 292 291 290 289 289 289 289 289 290 290 290 291 291 290 289 289 288 288 289 290 290 290 291 293 293 293 293 293 292 293 294 295 296 296 295 295 294 294 293 293 293 292 292 292 292 291 291 291 290 290 290 290 290 290 290 290 290 290 290 290 290
298 298 298 298 297 297 296 296 296 295 295 295 295 294 295 295 295 295 295 294 293 292 291 291 292 292 291 290 289 289 289 290 290 290 290 290 291 292 293 292 290 288 287 287 288 290 290 290 291 291 292 292 292 291 291 292 294 294 295 295 295 295 294 293 293 293 293 292 292 292 292 292 291 291 291 291 291 290 290 290 290 290 290 289 289 289 289
298 297 297 298 297 296 296 296 296 295 295 295 295 294 295 295 295 295 295 294 293 292 291 291 291 291 291 290 289 288 289 290 290 290 290 290 291 292 292 292 290 288 286 287 289 290 290 291 291 290 290 290 290 290 291 292 293 294 294 294 294 294 294 293 293 293 293 292 292 292 292 292 292 291 291 291 291 291 290 290 290 290 290 289 289 289 289
298 297 297 297 297 297 296 296 295 295 295 295 295 295 295 295 296 296 295 294 293 291 291 291 291 290 290 290 289 288 289 289 290 291 291 290 290 289 290 290 290 287 285 286 289 290 290 290 289 288 288 288 288 289 291 292 293 293 293 293 293 293 293 293 293 293 293 293 293 292 292 292 292 291 291 291 291 291 291 291 291 291 290 290 290 290 290
297 297 297 297 297 297 297 297 296 296 295 295 295 295 295 295 296 296 295 294 293 292 291 291 291 291 291 291 290 289 289 289 290 291 291 290 290 289 288 288 288 287 285 286 289 290 289 288 288 287 287 287 287 288 290 291 291 292 292 292 292 292 292 292 292 292 292 292 292 292 292 292 291 291 290 290 290 290 290 290 290 291 291 290 290 290 290
297 297 297 297 297 297 297 297 296 296 296 295 295 295 295 295 296 296 295 294 293 292 291 291 291 291 291 291 290 290 289 289 289 290 290 291 292 291 289 287 287 286 285 286 288 289 288 287 287 287 286 286 287 288 289 290 290 290 291 291 291 291 291 291 291 291 291 291 291 291 291 291 291 290 290 289 289 289 289 289 289 289 289 289 289 289 289
297 297 297 297 297 297 297 296 297 297 297 296 296 296 295 294 295 296 295 295 294 293 292 291 290 290 291 291 291 290 289 288 288 289 289 290 290 289 287 286 286 285 284 286 288 289 287 286 286 286 286 286 287 289 289 289 289 289 289 289 290 290 290 289 289 289 289 289 289 289 289 289 288 288 288 288 287 287 287 287 287 287 287 287 287 287 287
297 297 297 297 297 297 297 297 297 297 297 297 297 296 296 295 295 295 295 295 295 294 293 292 291 290 290 290 290 290 290 290 289 288 288 288 288 287 285 285 284 283 283 285 287 287 286 286 286 286 285 286 287 289 289 288 288 289 289 289 289 289 289 289 289 289 288 288 287 287 287 287 287 287 286 286 286 286 286 286 286 286 286 285 285 285 285
296 297 297 296 296 297 298 298 297 297 297 297 297 296 296 296 296 295 296 296 295 294 294 293 292 291 290 290 290 290 290 290 290 290 289 288 288 287 287 286 285 283 284 285 285 285 285 286 286 285 285 286 288 288 288 288 288 288 288 288 288 288 288 288 289 289 288 288 288 288 287 287 286 286 285 285 285 285 285 284 284 284 284 284 284 284 284
295 295 296 296 297 297 297 297 297 296 296 296 296 296 296 296 296 296 296 296 295 295 294 294 293 292 291 290 289 289 289 289 289 289 289 288 288 288 288 286 284 283 285 287 287 285 284 285 285 285 286 287 288 288 287 287 288 287 287 286 286 286 286 286 286 287 287 287 287 287 287 287 286 285 285 285 285 284 284 284 283 283 283 283 283 282 282
295 295 295 296 296 297 297 296 296 296 296 296 296 296 296 296 296 296 296 296 295 295 295 294 294 293 292 291 290 290 289 288 288 288 288 288 288 287 287 286 285 284 285 287 287 285 284 284 285 285 285 287 287 287 287 287 287 286 286 285 285 285 284 284 285 285 285 285 285 285 286 286 286 285 285 285 285 284 284 283 283 283 283 283 282 282 282
296 295 295 295 296 296 296 296 295 295 295 296 296 296 296 296 296 296 296 296 296 296 296 295 294 294 293 292 291 290 290 289 288 287 287 287 288 287 286 286 285 284 283 285 286 286 286 286 285 285 286 287 287 286 286 286 286 286 286 285 285 285 285 285 285 285 284 284 284 284 284 284 284 284 284 284 284 284 284 284 284 284 284 283 283 282 282
296 296 295 295 295 295 296 296 295 296 296 296 296 296 296 296 295 295 296 296 296 296 296 296 295 295 294 293 292 291 291 290 289 288 287 287 288 287 286 286 285 285 284 285 286 286 286 285 284 284 285 287 286 285 285 285 286 285 285 285 285 285 285 285 285 285 284 284 284 283 283 283 283 283 283 283 283 283 283 283 284 284 283 283 282 282 282
Wind_Speed
8 8 8 9 9 8 7 8 9 9 8 6 4 4 6 6 2 1 6 12 12 9 8 8 8 7 7 8 8 9 10 11 11 11 10 11 11 11 12 12 12 13 12 12 13 14 14 14 13 12 10 9 8 7 7 6 5 5 4 4 4 5 6 6 7 7 8 9 10 11 11 9 9 10 13 15 14 13 12 12 12 11 11 11 11 11 10
7 7 7 9 8 6 5 8 8 8 10 10 8 7 7 6 6 6 9 14 12 8 7 8 8 7 7 8 9 10 11 11 10 11 11 11 11 12 12 12 13 13 13 14 15 16 15 15 14 13 11 10 9 8 8 7 6 5 5 4 4 4 4 4 4 5 7 7 8 10 11 10 10 12 15 15 13 13 13 12 10 10 11 11 10 10 9
3 2 4 5 6 4 3 4 6 6 6 7 7 6 6 5 6 7 10 12 10 6 6 8 8 8 8 9 10 10 10 9 10 11 11 12 12 12 13 13 13 13 14 15 16 16 16 16 15 14 12 11 10 9 8 8 7 6 6 6 5 4 4 4 4 4 5 5 6 8 9 10 11 13 13 13 12 12 12 11 10 11 10 10 10 10 9
5 5 3 3 4 4 3 3 3 5 5 4 6 5 5 4 3 5 7 7 7 6 7 8 9 10 10 10 11 11 9 9 10 11 11 12 12 12 13 13 13 14 14 14 16 16 16 16 15 14 13 13 12 11 9 8 7 6 6 6 5 4 4 4 3 3 3 4 5 5 6 7 8 10 10 10 10 10 10 10 9 9 9 9 9 8 8
6 7 5 2 1 2 4 3 1 4 3 4 5 5 5 5 3 0 2 5 7 8 8 9 10 11 11 10 10 9 10 11 11 12 12 12 12 12 12 13 13 13 14 15 16 15 15 15 14 14 13 14 13 12 10 9 8 7 7 6 5 4 4 3 2 2 2 3 4 4 5 5 7 7 8 8 9 9 9 9 8 7 7 8 9 9 8
4 6 5 1 5 6 2 1 1 1 1 4 5 5 5 4 3 3 6 8 9 9 9 10 12 11 11 11 10 10 10 10 11 12 12 12 12 13 13 13 13 14 15 15 16 15 14 13 13 13 13 12 12 11 10 10 9 9 8 8 7 6 5 4 3 2 2 2 2 3 3 4 6 7 8 8 8 8 8 8 9 8 8 9 9 8 7
3 6 6 6 7 4 2 3 2 1 3 7 11 10 7 6 5 7 9 10 9 9 10 11 12 13 13 13 13 12 11 10 11 12 12 12 12 12 12 13 13 15 16 16 15 15 13 12 12 12 12 11 10 9 9 9 8 8 8 8 8 7 6 5 4 3 3 2 2 2 3 4 5 7 8 8 8 9 9 9 10 9 8 8 8 8 9
3 6 8 6 2 2 5 5 4 4 5 7 9 8 8 7 5 7 9 10 10 11 12 11 12 13 13 12 11 10 9 9 9 9 8 8 10 11 12 12 13 14 15 15 15 14 13 13 12 12 12 10 9 9 8 7 7 6 6 6 6 6 6 6 5 4 3 2 2 3 3 5 5 6 8 8 9 9 9 9 9 8 8 9 10 11 11
2 6 7 3 3 3 4 5 4 3 2 1 1 3 5 5 3 6 10 11 12 12 12 11 11 11 11 9 9 9 9 8 8 8 8 7 6 8 11 12 13 13 13 13 13 12 12 13 12 12 11 9 8 9 8 7 5 5 4 5 5 4 5 5 5 4 3 1 1 3 4 5 6 6 7 8 9 9 10 10 11 12 12 12 12 12 11
2 5 5 4 4 4 4 5 4 3 3 3 3 1 4 4 3 6 10 11 11 11 11 10 8 6 6 6 6 7 8 9 8 10 10 10 10 10 10 11 11 11 12 11 11 10 11 11 12 12 11 10 9 8 8 7 6 5 5 6 5 5 5 4 4 3 3 2 0 2 3 4 5 6 8 8 8 9 10 11 12 13 13 12 11 11 10
3 4 6 6 5 1 4 5 4 3 2 2 4 3 4 6 5 5 7 9 9 8 7 6 3 4 4 5 6 5 7 8 9 9 10 11 11 11 11 12 11 11 11 10 10 10 11 12 13 13 12 11 9 9 8 7 6 7 7 7 6 6 6 5 4 3 3 3 2 2 2 2 3 5 7 9 9 10 10 11 12 12 12 12 11 11 10
6 7 7 4 1 3 4 3 3 3 2 1 4 5 5 7 7 5 6 8 7 5 4 3 1 2 1 5 6 5 6 8 9 9 9 10 11 11 12 13 12 11 11 11 11 11 11 11 11 11 11 10 9 9 8 7 7 7 7 7 7 6 6 6 5 4 4 4 4 4 3 2 2 4 6 8 10 12 11 11 12 12 12 12 12 12 12
6 7 7 3 2 4 3 3 3 2 0 2 4 3 4 8 8 6 7 7 6 5 3 2 4 6 6 6 7 6 6 7 8 9 9 10 10 10 11 12 11 11 10 10 10 10 10 10 9 9 9 9 8 8 7 6 6 7 7 7 7 7 6 6 5 5 5 5 5 5 5 4 4 5 6 8 10 13 13 13 14 14 14 13 13 13 14
3 4 5 3 2 3 3 3 3 0 2 2 2 3 6 9 9 8 9 8 8 7 7 7 6 7 7 7 6 6 6 7 7 8 9 9 9 10 10 10 10 11 10 9 9 9 9 9 9 8 8 8 8 7 7 6 5 6 7 7 7 7 6 6 6 5 5 5 5 5 5 6 6 6 7 9 10 13 14 14 15 16 15 14 13 14 15
2 4 6 4 1 3 3 2 1 0 1 2 5 6 7 9 9 8 8 8 8 7 7 8 7 6 7 6 6 6 6 7 7 8 9 9 9 10 10 10 10 11 10 9 9 9 9 9 8 8 8 8 7 7 8 6 6 7 8 8 8 8 8 7 7 6 5 5 4 4 4 6 7 8 8 9 10 13 14 14 16 16 15 14 14 14 15
3 4 3 1 2 3 3 2 3 5 5 5 7 7 7 7 6 6 6 7 7 7 7 6 6 6 6 6 6 6 6 7 8 8 9 9 9 9 10 9 10 10 10 10 10 9 9 8 8 8 7 7 8 8 8 7 7 8 8 8 9 9 9 9 8 8 7 6 5 4 4 5 6 7 9 9 10 13 14 15 17 17 15 15 15 16 16
3 2 4 4 4 5 5 5 7 10 9 7 7 7 7 6 5 4 5 6 7 7 6 5 5 5 5 6 6 5 6 6 7 8 9 9 9 9 10 9 9 10 10 10 10 10 9 8 9 8 8 8 9 9 9 8 8 9 9 9 10 10 10 10 10 9 9 9 8 7 6 5 5 7 8 9 11 13 14 16 18 17 16 17 17 16 16
7 7 7 7 7 7 8 8 8 9 9 8 7 7 7 6 6 6 5 6 6 6 6 5 5 5 5 5 5 5 6 6 7 8 8 8 9 9 10 9 9 10 10 9 9 10 10 10 10 9 8 9 10 11 10 10 10 10 10 11 11 11 12 12 11 10 10 11 11 10 9 8 8 8 7 8 11 13 14 16 18 18 18 18 18 17 16
3 4 6 7 8 9 9 8 8 8 8 7 6 6 6 5 5 5 5 5 5 5 5 5 4 4 4 5 5 5 5 5 6 7 8 8 9 9 10 10 10 10 10 10 10 11 11 11 11 10 10 11 11 11 11 11 12 12 12 12 13 13 13 13 12 12 12 12 12 11 11 12 12 11 10 9 10 11 13 15 17 19 19 18 18 17 14
2 5 8 7 7 7 6 5 6 6 6 7 7 7 7 6 6 6 5 4 4 4 4 4 4 4 3 4 5 5 4 5 6 7 8 9 9 10 10 11 11 11 11 11 12 12 13 12 12 12 12 12 12 12 12 13 13 14 14 14 14 14 14 14 14 15 15 14 14 14 14 15 15 14 13 12 11 11 12 12 13 16 16 17 20 18 13
5 7 8 7 6 6 5 4 5 5 5 6 7 6 6 5 5 5 5 4 4 4 4 4 4 4 3 4 5 5 5 5 7 8 9 10 11 12 12 13 13 13 13 13 14 14 14 14 13 13 13 13 13 13 13 13 14 15 15 15 16 17 17 17 17 16 16 16 16 16 16 16 16 16 15 15 13 11 11 10 10 12 11 13 16 14 12
4 5 7 6 3 3 5 5 5 5 5 5 5 5 4 4 3 3 3 3 3 3 4 4 4 4 4 5 6 6 6 7 9 10 11 12 13 13 13 13 13 13 13 13 14 14 15 14 14 14 14 14 14 14 15 15 15 16 17 17 18 18 18 18 18 18 18 18 17 16 16 15 16 16 17 17 18 16 14 13 14 14 13 12 12 9 10
3 5 7 4 1 2 5 6 6 5 4 4 4 4 3 3 2 3 4 4 3 3 4 4 5 5 6 7 8 8 8 10 11 12 13 13 13 12 12 11 11 12 12 13 13 14 14 14 14 14 14 14 14 14 15 15 16 18 19 20 20 20 19 19 19 20 21 22 21 20 19 18 16 16 16 17 18 19 19 19 20 18 16 15 14 11 12
5 5 6 4 3 4 6 5 5 5 3 2 2 2 1 1 2 3 4 4 4 4 3 3 5 6 8 9 10 10 11 11 12 12 12 12 11 11 11 11 11 12 13 13 13 13 13 13 13 13 14 14 13 13 13 14 14 15 17 18 20 20 20 20 21 21 22 23 23 22 22 21 19 19 19 17 16 17 17 19 21 21 19 17 14 12 13
5 5 6 6 5 6 5 4 4 4 2 1 1 1 1 2 3 4 4 3 3 3 3 4 5 6 7 8 9 9 10 10 10 10 10 9 8 9 10 10 11 12 12 13 13 12 12 12 13 14 15 15 15 15 15 14 14 14 15 16 17 18 19 19 20 20 21 22 22 22 22 22 22 22 22 21 18 15 14 15 18 21 22 21 17 13 11
6 6 6 5 5 5 4 3 3 4 3 1 1 1 1 2 2 2 3 2 2 2 3 4 5 5 6 7 8 8 8 8 8 8 7 7 7 8 9 10 11 11 12 13 12 11 12 13 14 14 15 15 15 14 14 14 15 15 15 16 16 18 18 18 19 19 20 21 22 22 22 22 22 21 22 22 21 18 15 13 14 17 20 23 22 18 15
6 5 4 3 3 4 3 1 2 4 3 2 2 1 0 1 0 1 1 1 2 2 3 3 4 6 6 7 7 6 6 7 7 6 6 7 7 8 8 9 10 11 11 11 11 11 12 12 13 13 13 13 13 13 13 14 14 15 16 16 17 18 19 20 20 20 20 21 22 23 22 22 21 20 20 20 20 21 19 16 13 13 16 19 22 21 19
5 3 1 1 1 2 2 2 2 4 4 3 2 1 1 1 1 2 2 2 2 2 2 2 4 6 6 6 6 6 6 6 6 6 6 6 7 7 8 9 10 10 9 9 10 10 10 10 11 12 13 13 12 13 13 13 13 14 15 15 16 17 18 19 19 19 20 21 21 22 22 22 21 20 18 17 17 18 19 19 17 15 12 12 15 19 19
4 3 1 2 2 2 3 4 4 4 4 3 2 2 2 2 2 2 1 1 1 2 2 3 4 5 6 6 5 5 6 6 6 6 5 6 7 7 8 9 9 9 8 8 9 9 9 10 12 12 13 14 15 14 12 12 12 12 13 14 15 15 15 16 16 17 19 20 21 22 22 21 20 19 18 17 15 14 15 16 16 17 15 9 10 12 12
4 3 2 2 2 3 4 4 4 4 4 4 3 2 2 2 2 1 0 1 2 1 2 3 4 5 6 6 5 5 5 6 6 5 5 6 7 7 8 8 8 8 7 8 9 10 10 11 12 12 15 17 16 14 12 12 12 11 11 12 13 13 13 15 15 16 17 18 20 22 24 24 21 19 18 17 15 13 13 13 13 15 16 13 10 10 11
6 4 4 3 3 4 4 3 3 4 4 4 4 3 3 2 2 1 1 1 1 1 2 3 5 6 6 5 5 5 5 6 6 5 4 5 6 7 8 7 7 7 8 9 10 10 11 12 12 13 15 17 15 13 13 13 12 11 10 11 11 11 12 14 14 13 14 14 15 18 20 21 21 19 18 17 15 12 11 12 13 14 14 15 15 12 13
7 6 5 5 4 5 4 3 3 4 4 4 5 4 4 3 3 2 1 1 1 1 2 3 5 5 5 5 5 5 5 6 5 3 4 5 6 8 8 6 5 7 9 9 9 10 11 12 13 13 15 15 14 14 15 14 12 10 10 10 10 10 11 12 12 11 11 11 11 11 11 12 15 16 17 16 15 13 11 11 12 13 14 15 15 12 12
6 4 4 4 5 5 4 4 5 5 5 5 6 4 3 3 3 2 2 2 2 2 3 4 4 5 4 4 3 4 5 6 5 1 4 8 8 8 7 5 5 6 7 7 8 9 10 11 13 13 13 13 14 14 14 13 12 11 10 11 10 10 10 12 12 11 10 9 9 7 5 4 7 10 12 12 12 11 10 11 12 12 13 13 12 9 11
3 1 1 2 3 4 4 4 5 5 5 6 6 5 3 3 3 3 2 2 3 3 3 4 5 6 5 4 3 3 4 5 3 1 5 8 8 8 7 5 5 6 6 6 7 9 9 11 13 13 12 12 13 13 13 12 12 12 12 11 11 11 11 12 12 12 11 10 9 7 4 1 1 4 8 9 10 11 11 12 12 10 9 9 8 8 11
2 1 1 2 2 2 3 3 5 5 6 6 5 5 4 4 3 3 3 4 4 4 3 4 6 6 4 3 3 2 1 2 2 3 4 6 6 7 7 6 6 6 5 4 7 9 9 10 13 13 11 10 11 13 13 12 12 13 13 12 11 12 12 12 12 12 12 12 10 9 7 6 3 3 5 7 9 8 8 7 7 8 9 9 10 12 15
4 3 3 3 3 2 2 3 5 6 7 6 5 4 4 4 3 3 4 4 4 4 4 4 5 4 3 3 3 3 1 1 2 3 4 4 5 5 5 6 8 8 5 5 8 10 10 11 12 13 11 9 9 12 14 13 11 11 13 13 13 13 13 13 12 12 13 12 12 11 10 10 9 7 6 6 7 7 7 8 9 10 11 11 14 17 18
5 4 3 3 3 3 3 4 6 7 8 7 6 6 5 4 3 3 3 2 3 4 4 5 4 4 3 3 3 2 2 1 2 3 3 3 3 3 4 6 8 7 6 6 9 11 11 11 12 12 10 9 8 10 13 14 11 10 12 13 14 14 14 14 14 14 13 13 13 13 13 13 13 12 11 10 10 11 11 12 12 13 14 15 16 18 17
5 4 3 3 4 4 5 5 6 7 7 6 6 6 5 4 3 3 3 3 2 4 4 4 4 3 3 3 2 2 2 2 2 2 2 2 2 3 4 5 6 6 6 8 11 11 11 12 12 11 9 9 9 10 12 13 11 10 11 12 12 13 14 15 15 16 15 14 14 14 14 14 15 15 15 15 14 14 15 15 15 15 15 15 15 16 16
5 5 4 4 4 5 6 7 7 7 7 6 6 5 4 4 3 4 4 3 2 3 4 4 4 4 4 3 2 2 2 3 2 2 1 1 2 3 2 3 4 5 7 8 9 9 9 11 11 9 9 10 10 10 11 11 11 9 9 9 11 12 12 13 14 14 15 16 16 16 17 17 17 17 17 17 17 17 18 19 19 18 18 17 17 18 18
4 4 5 6 6 6 6 7 7 7 6 6 5 5 4 4 4 4 4 4 2 2 3 4 5 4 3 2 1 1 2 3 2 1 0 1 1 1 1 1 2 4 7 8 7 7 7 10 10 8 8 10 10 10 10 10 10 9 8 8 10 11 11 11 12 12 13 14 16 16 17 17 17 17 17 16 16 16 16 17 17 18 18 17 18 19 19
4 4 5 6 7 7 7 7 7 7 7 7 6 5 4 4 4 4 5 4 2 2 3 4 4 3 1 0 1 1 3 4 2 1 1 1 0 1 2 1 2 4 6 6 6 7 8 9 9 8 8 9 9 10 10 10 9 8 8 8 9 10 11 11 11 11 11 12 13 13 14 14 15 15 15 14 14 14 13 14 14 14 14 14 15 16 18
5 4 5 6 7 7 8 8 7 7 7 7 7 6 5 4 4 4 4 3 2 3 3 3 3 3 1 1 1 2 4 4 3 2 2 1 0 1 2 1 3 4 5 5 5 6 6 6 7 8 9 9 8 8 9 8 7 7 8 8 9 9 10 11 11 11 11 11 11 12 12 12 12 13 13 13 13 12 12 12 12 13 13 14 15 16 17
7 6 5 6 7 7 8 8 8 8 8 8 8 7 6 5 4 4 3 3 3 3 3 3 3 3 3 3 3 3 4 3 3 3 3 2 1 1 2 2 3 5 5 4 3 4 4 5 6 7 9 8 7 7 7 7 6 6 7 8 8 8 9 9 10 10 11 11 11 11 11 11 11 12 12 12 12 11 11 12 12 12 12 13 14 14 14
8 7 7 6 6 7 8 8 8 8 8 8 8 7 6 6 4 4 4 4 4 3 3 3 4 4 4 4 3 3 3 3 4 4 3 3 3 3 2 1 3 4 4 3 2 3 4 4 5 6 8 8 7 7 6 6 6 6 7 7 7 8 8 9 9 10 10 11 11 11 11 11 11 11 11 11 12 11 11 12 12 12 12 12 12 12 11
10 10 8 7 7 7 7 7 8 8 8 8 8 8 8 7 6 4 4 5 4 4 3 4 4 4 5 5 4 3 2 2 3 3 3 2 2 2 2 1 2 3 2 2 2 2 3 3 5 6 7 6 7 7 7 6 6 6 6 7 7 7 8 8 9 9 9 10 10 10 10 10 11 11 11 11 11 11 11 11 11 10 10 10 10 10 10
11 11 10 9 9 8 7 7 7 7 7 7 8 9 9 9 8 6 5 5 5 4 4 4 4 5 5 5 4 3 3 3 3 4 3 2 0 1 1 2 1 1 2 2 2 1 2 3 5 5 5 6 7 7 6 6 6 7 7 7 7 8 8 8 8 8 8 9 9 9 9 9 9 9 9 9 9 9 9 9 9 9 9 8 8 8 8
11 11 11 11 11 10 9 7 7 7 7 8 8 8 9 10 10 9 7 6 6 5 5 4 4 5 5 5 5 5 4 3 4 4 4 3 2 2 3 3 1 1 2 1 1 1 2 3 3 4 4 6 7 6 5 6 7 7 7 7 8 8 8 8 9 9 9 9 9 9 9 9 9 9 8 8 8 8 7 7 7 7 7 7 7 7 6
9 10 11 11 11 10 9 9 9 9 9 9 8 7 7 8 9 10 9 7 7 7 6 6 5 5 5 6 6 5 4 4 3 3 4 5 4 3 4 4 3 2 3 2 1 2 3 3 2 3 4 6 5 5 5 6 6 6 7 8 8 8 8 8 8 8 9 9 9 9 9 9 9 9 8 8 8 8 7 7 7 6 6 6 6 6 5
6 8 9 9 9 10 9 9 9 10 10 10 10 9 7 7 8 9 9 9 9 8 8 7 7 7 6 7 7 6 6 5 3 2 3 5 5 4 5 6 5 3 3 2 1 2 2 3 3 3 4 5 4 3 4 5 6 6 7 8 8 9 9 9 9 9 9 9 9 9 9 9 9 9 9 9 9 9 8 8 8 7 7 7 6 6 5
6 8 8 8 8 9 10 9 9 9 9 9 9 8 8 8 8 8 9 10 10 9 9 8 8 7 7 8 7 7 7 7 5 3 3 5 5 5 5 5 5 5 5 4 3 2 2 3 3 3 4 3 3 3 4 5 5 6 7 8 9 9 10 10 10 10 10 9 10 10 10 10 10 9 9 9 9 9 9 9 9 9 8 8 7 7 6
6 7 8 8 9 9 10 10 9 9 8 7 7 7 8 8 9 9 9 9 9 10 9 9 9 8 8 8 8 8 8 8 8 7 6 5 6 6 7 7 6 6 5 4 3 3 3 3 3 3 3 2 2 3 4 5 5 6 6 7 7 8 8 8 9 9 9 10 10 10 10 10 10 10 9 9 9 9 9 9 8 8 9 8 8 8 8
6 6 6 7 8 9 9 10 10 9 8 7 7 7 8 9 9 10 9 9 10 11 11 10 10 9 9 9 9 9 9 9 9 8 8 7 7 7 8 8 8 7 6 5 4 4 4 4 5 5 4 3 3 4 5 5 5 5 5 6 6 7 7 7 8 8 8 8 9 9 9 9 9 9 9 9 9 8 8 8 8 8 8 8 8 8 8
Wind_Direction
57 39 58 71 68 71 73 76 75 62 56 62 67 49 10 352 313 186 111 115 112 94 96 107 101 101 108 106 108 115 116 118 121 118 108 102 99 94 90 89 86 85 84 81 80 80 84 90 93 95 96 95 98 107 115 120 127 128 131 148 158 171 187 196 202 203 203 208 213 210 209 212 219 228 229 221 212 205 198 195 198 197 195 198 201 200 197
68 32 40 67 71 69 71 70 66 62 61 61 65 62 43 47 68 81 97 99 88 74 88 99 95 96 104 109 113 113 113 115 115 110 106 102 97 93 90 86 84 83 82 79 76 74 73 74 77 80 84 88 93 94 97 100 103 106 111 117 125 147 163 166 181 193 194 201 207 205 202 205 211 219 221 214 205 201 200 203 208 209 206 205 208 212 209
107 48 32 62 67 50 35 26 17 24 45 57 64 57 40 51 80 97 105 98 85 75 89 101 108 106 103 106 107 107 107 108 105 101 99 99 96 93 91 90 88 84 80 79 77 74 71 70 70 71 74 79 84 86 90 94 94 94 96 98 102 110 113 115 131 159 175 186 198 202 201 200 203 210 212 207 202 202 203 208 211 210 209 207 209 215 213
187 173 149 86 52 16 322 294 333 7 20 48 63 47 12 11 73 124 130 106 95 107 110 108 108 101 95 92 91 93 93 90 93 96 95 93 93 92 91 88 85 82 78 75 73 73 73 71 69 71 73 74 74 75 82 90 92 90 91 96 101 101 102 109 123 141 164 181 194 201 204 205 203 205 208 206 205 204 203 207 206 203 203 202 205 210 213
192 170 157 106 35 259 256 240 129 48 56 100 93 57 28 9 352 265 119 97 108 125 124 112 102 91 81 74 73 80 85 81 78 79 82 83 81 81 82 81 78 76 73 70 68 68 70 69 69 70 71 72 71 72 78 85 88 88 87 89 92 96 106 114 120 146 178 195 207 211 216 218 212 210 213 213 210 204 200 202 201 201 207 209 211 215 219
191 163 158 201 229 224 226 116 136 55 89 133 117 80 51 33 12 45 80 99 114 120 117 110 99 86 76 69 59 54 65 77 76 70 69 71 72 70 66 65 66 65 66 66 62 62 61 62 65 66 66 68 71 74 78 81 83 85 85 86 86 87 92 96 102 119 142 163 192 209 215 211 207 210 213 211 206 200 199 206 207 209 217 219 216 210 199
172 148 170 211 224 222 48 60 136 141 117 117 106 89 66 62 88 104 104 108 109 103 101 102 98 92 84 75 64 49 44 56 65 62 53 47 51 58 58 55 53 54 57 58 55 54 54 54 57 57 54 57 64 71 74 78 79 80 82 84 83 81 81 81 83 91 104 122 146 168 186 191 197 206 206 206 208 205 208 216 218 217 219 209 194 176 159
154 168 191 205 193 102 78 87 111 118 132 132 115 91 65 56 85 116 115 112 111 108 107 106 106 105 97 85 77 69 60 61 67 66 56 39 31 33 40 44 44 43 46 49 48 44 44 46 48 48 45 44 50 55 56 61 68 69 71 75 75 72 71 67 63 64 76 102 138 164 182 189 195 199 197 200 206 204 203 206 203 198 193 180 167 157 150
212 205 199 168 125 144 134 118 112 98 102 142 87 85 79 55 60 118 123 121 120 119 119 120 123 123 113 94 80 75 73 79 87 87 88 88 69 44 37 39 40 37 36 41 43 40 38 38 37 37 37 38 45 49 45 39 43 52 57 57 54 52 51 47 43 42 46 70 151 180 193 195 196 194 191 192 193 190 188 187 181 176 172 166 158 154 152
264 232 212 192 199 198 137 117 105 55 22 330 312 79 116 97 83 119 126 127 127 127 130 132 138 153 141 107 81 69 64 64 70 72 71 73 74 65 50 42 40 37 33 34 38 38 36 33 28 24 23 26 35 44 44 36 34 40 42 36 29 22 15 10 12 15 16 17 344 210 206 197 188 185 186 184 182 180 178 175 171 167 164 160 157 156 155
193 225 231 226 227 203 100 111 93 47 13 299 280 242 158 133 125 127 128 131 131 130 136 141 165 228 193 125 89 65 59 57 53 54 54 51 51 50 44 36 31 30 29 26 28 30 28 25 20 14 12 15 18 23 25 27 33 38 34 25 16 8 359 347 338 337 337 339 337 296 243 219 194 187 185 182 178 177 178 176 173 171 168 166 163 159 156
198 215 231 229 180 72 88 93 48 24 8 288 243 228 171 135 134 131 126 131 128 126 154 170 60 353 100 113 91 61 58 60 51 44 42 39 36 35 33 27 19 18 20 20 19 20 19 15 11 7 6 5 5 7 5 6 20 25 18 11 4 357 352 345 339 337 326 321 323 315 306 302 264 223 206 195 185 183 186 187 183 178 176 173 168 164 164
210 217 227 216 91 77 83 67 41 23 222 211 225 218 124 119 125 116 106 108 103 98 115 122 80 64 67 85 85 66 52 52 46 39 34 31 28 27 25 21 14 10 10 12 13 11 10 6 1 1 0 354 351 352 348 349 4 5 356 352 347 342 341 341 344 349 344 334 319 302 296 297 285 258 233 219 206 197 195 194 188 183 182 182 177 174 172
227 214 223 213 102 60 25 34 51 343 235 195 147 106 112 117 112 101 95 88 81 79 75 74 83 87 78 73 70 57 46 39 31 26 23 20 19 18 15 14 12 4 357 360 2 360 358 356 351 352 350 342 338 337 332 333 343 341 335 333 330 327 325 325 331 340 344 345 333 306 291 284 277 263 246 235 224 214 210 205 195 189 187 187 184 181 181
265 216 224 234 157 64 360 345 116 131 295 121 110 109 116 112 103 98 90 76 69 72 75 74 75 76 69 57 46 40 36 29 18 15 13 7 6 5 360 359 2 356 345 344 348 345 343 342 341 340 336 329 324 320 316 317 322 322 319 315 313 312 310 310 314 314 318 328 330 318 304 289 275 261 251 242 232 225 221 213 204 199 197 194 190 187 188
286 233 218 288 73 76 19 350 91 85 78 105 119 116 111 109 110 107 90 74 63 58 64 69 65 61 53 38 28 22 15 11 5 2 0 356 354 352 347 347 351 346 336 332 332 330 330 331 330 326 320 315 310 305 302 303 306 306 303 301 301 299 296 296 296 296 298 300 300 300 302 295 279 262 251 244 236 229 223 218 213 210 208 206 200 196 197
25 39 79 81 88 95 76 70 91 94 93 99 108 110 107 98 88 83 80 76 64 49 46 51 53 48 35 22 18 9 360 359 356 351 350 348 345 342 338 338 341 336 328 322 318 316 318 320 319 313 307 301 295 290 290 292 295 293 291 289 289 286 283 282 283 284 285 284 282 283 284 282 275 261 249 242 237 230 224 222 220 217 215 214 210 208 213
91 74 88 101 102 101 94 86 87 88 85 83 81 87 90 76 62 61 64 66 60 46 39 38 39 36 23 9 7 3 353 349 348 345 343 342 341 338 333 333 333 329 322 317 315 315 315 315 311 305 299 292 287 284 284 285 286 285 284 283 280 278 277 276 275 275 275 274 272 269 269 270 267 259 249 243 238 234 230 228 226 225 225 224 222 225 231
132 105 113 114 106 107 107 100 94 90 87 85 81 82 87 86 82 79 77 78 76 64 53 43 30 25 21 5 358 358 349 343 344 341 339 339 337 333 329 328 326 322 319 318 318 318 318 317 313 306 299 291 286 284 283 282 282 280 278 277 276 275 274 273 273 271 270 268 265 262 263 263 258 252 248 244 239 236 235 233 233 235 234 233 235 234 234
115 115 123 121 112 114 116 111 111 111 106 103 101 102 108 114 109 99 92 84 69 55 52 41 13 3 14 10 360 353 345 342 342 340 338 336 331 327 326 325 323 320 317 317 318 317 317 317 313 308 301 293 289 287 284 282 281 278 276 274 273 273 272 271 270 268 266 263 261 261 261 256 250 247 245 242 240 238 238 237 238 239 237 234 236 234 223
110 115 131 139 134 134 140 126 108 107 109 111 110 111 113 113 104 95 86 70 54 43 37 21 357 350 10 16 2 348 341 343 343 339 334 328 324 325 325 323 322 320 316 316 317 315 313 312 309 306 302 297 293 290 286 285 283 279 277 275 273 271 270 269 268 266 265 262 260 259 259 253 249 247 244 241 241 240 238 240 243 248 250 243 238 235 226
147 135 148 157 155 145 148 142 124 113 113 116 117 114 104 93 81 68 57 50 49 48 39 24 7 1 9 8 355 343 341 343 340 335 330 326 323 324 323 322 320 318 316 316 314 311 309 309 306 304 302 298 295 290 287 285 282 279 277 276 274 272 270 268 266 266 266 266 264 261 260 257 255 253 249 246 248 248 246 246 248 252 258 255 244 233 226
101 125 142 143 23 69 116 129 133 129 123 119 118 108 87 69 43 17 10 4 2 20 36 33 18 4 355 351 347 342 340 340 337 333 330 329 327 326 326 325 324 322 320 318 314 312 311 310 307 306 305 302 299 296 291 288 283 279 276 274 273 273 271 270 270 269 268 267 267 265 263 261 260 259 256 253 255 256 255 255 255 255 258 257 252 241 229
88 120 130 104 59 78 102 112 123 124 128 129 108 87 60 34 4 349 346 347 348 352 360 7 3 353 344 341 340 336 333 335 334 332 330 330 329 329 329 328 325 325 324 321 318 317 315 314 313 311 309 306 305 302 298 294 289 284 280 276 274 274 273 272 272 270 267 267 267 266 264 262 261 260 260 259 257 255 253 254 255 254 253 254 254 250 238
96 105 99 85 75 84 98 109 117 120 126 119 78 61 15 360 349 334 328 334 345 337 326 334 344 343 337 334 331 328 327 327 327 325 325 325 325 324 324 324 324 323 321 318 318 318 316 314 312 308 305 303 302 300 296 293 289 285 281 279 277 278 278 277 275 272 267 265 265 264 262 260 259 258 258 258 257 252 246 244 247 248 249 249 248 246 243
95 101 105 102 96 103 123 138 137 141 148 143 124 158 87 43 14 334 322 330 330 317 315 324 333 335 332 329 326 324 321 318 317 316 316 317 319 319 319 320 320 318 316 315 314 314 313 310 308 305 303 304 305 303 298 292 287 282 278 274 273 273 274 274 274 273 269 265 263 262 261 260 260 259 257 256 256 256 250 240 234 236 239 242 242 240 238
108 116 129 128 122 141 171 174 127 145 167 180 184 200 202 72 75 275 293 304 298 299 306 318 326 330 330 328 327 325 321 317 318 318 318 321 324 322 321 321 319 317 317 315 311 311 311 310 309 308 306 306 308 306 300 294 288 283 279 277 275 274 273 271 270 270 269 266 264 262 260 258 257 257 257 256 255 255 254 250 246 239 233 231 232 232 233
122 119 116 25 68 144 160 150 139 154 174 185 180 211 272 268 257 271 282 290 284 276 286 312 323 327 330 332 333 330 325 325 328 330 330 330 330 327 325 325 323 321 319 315 312 313 314 315 317 315 312 311 312 310 306 300 292 287 286 284 282 280 279 276 272 269 267 266 264 262 260 258 254 250 250 251 251 251 250 249 249 251 243 221 212 218 225
139 134 114 61 59 100 138 156 170 175 180 183 186 212 235 229 246 271 286 292 258 250 280 315 326 331 333 335 337 334 328 330 334 336 335 335 335 334 330 327 325 322 317 316 319 321 322 325 324 320 319 322 322 319 316 311 303 297 294 288 284 282 282 280 279 276 272 268 265 262 260 260 258 252 245 242 244 247 249 247 244 245 242 219 184 190 201
146 150 151 129 133 158 160 168 190 198 187 186 199 214 220 231 256 277 302 219 234 251 306 321 332 339 338 339 342 335 326 328 332 336 342 342 339 337 335 332 331 329 326 328 329 328 329 331 327 324 327 332 330 327 326 324 316 307 300 293 288 286 286 287 287 284 278 274 271 267 260 254 251 248 243 239 236 236 242 249 249 244 237 224 206 193 178
148 152 161 159 169 185 188 196 217 210 195 199 214 212 200 212 234 234 180 201 238 286 318 326 338 343 343 347 347 335 326 327 326 328 345 346 337 337 339 335 329 324 321 323 326 328 331 331 327 324 328 331 331 332 336 334 327 318 312 308 304 302 302 302 300 295 288 284 281 276 265 252 243 237 235 235 230 223 228 241 246 241 231 224 222 211 175
151 158 175 185 191 205 218 231 229 216 206 210 218 214 204 209 222 214 191 201 245 282 301 325 340 339 337 344 340 325 322 317 301 305 352 351 338 339 342 333 315 310 309 312 321 327 331 333 332 329 330 333 338 343 347 346 340 334 332 332 330 327 328 328 326 320 312 305 300 293 275 251 235 226 223 222 217 213 219 232 235 232 227 222 219 204 167
166 174 195 201 202 219 239 240 230 224 216 211 214 213 204 205 218 222 218 222 245 274 295 319 325 318 316 315 296 291 304 294 262 248 11 354 339 341 344 329 307 307 308 314 326 334 340 343 342 338 339 344 349 353 355 357 359 355 351 352 351 349 347 348 348 345 338 332 330 325 301 250 224 216 213 209 201 201 213 226 227 224 220 211 201 178 159
193 232 257 195 200 238 264 248 226 218 209 205 206 202 194 202 219 227 232 247 263 275 294 309 309 306 304 290 267 274 302 298 276 325 356 340 333 339 340 330 318 317 317 327 339 345 350 350 345 342 343 350 356 359 359 3 9 11 7 3 3 2 1 1 5 8 5 359 355 356 357 351 205 197 196 193 190 196 215 228 224 210 192 178 165 150 154
200 197 138 155 187 244 276 246 217 207 202 199 196 195 202 213 228 242 254 262 264 266 276 293 301 305 296 264 251 252 266 306 316 319 320 324 331 334 331 336 345 341 331 337 349 352 351 348 348 350 352 352 357 1 2 3 9 14 15 14 13 12 12 13 17 21 23 21 19 22 31 42 66 135 167 173 178 189 208 215 192 164 151 144 131 126 136
197 189 166 171 192 212 223 212 199 194 193 187 179 192 215 226 239 258 269 265 254 251 258 272 287 293 273 240 241 248 240 267 308 301 305 322 334 333 335 348 353 345 328 335 356 358 350 346 354 4 7 1 359 3 7 11 13 13 16 22 25 24 24 24 24 26 31 34 37 42 48 56 67 81 102 123 134 137 134 133 133 132 132 127 118 116 121
201 202 188 188 196 200 204 198 188 186 186 180 177 194 217 231 243 261 280 279 249 237 243 253 264 268 255 239 239 249 253 272 298 303 309 321 337 355 1 356 349 340 328 340 359 359 347 345 359 11 12 7 4 4 8 17 22 18 19 26 30 30 32 33 31 32 35 38 44 50 55 60 65 70 74 86 100 109 112 114 114 113 113 113 114 117 121
190 197 200 199 198 197 192 183 179 181 183 183 188 200 215 234 253 271 285 278 237 217 228 242 246 240 230 226 234 253 266 279 297 308 312 320 12 38 27 5 353 344 335 345 355 351 342 348 4 10 4 3 5 3 8 22 32 27 25 32 34 33 35 38 37 37 40 42 46 52 55 58 63 65 67 73 82 92 98 103 104 104 106 108 111 113 114
184 191 195 195 195 190 180 174 177 183 188 196 203 203 206 225 251 274 284 277 241 212 220 223 215 213 218 218 222 238 251 264 280 298 312 360 55 65 56 26 9 350 339 347 351 340 338 355 6 2 356 3 6 360 5 23 36 31 26 35 40 38 37 40 41 43 45 47 49 55 58 61 64 67 68 70 74 80 86 92 95 97 98 100 103 106 109
190 188 187 188 190 189 182 179 184 191 199 209 212 205 205 226 253 276 284 277 249 228 232 223 211 212 223 235 248 241 229 237 251 262 109 92 73 123 199 143 37 352 341 351 354 344 353 9 8 355 355 6 7 4 8 22 33 33 32 38 44 45 44 42 42 46 50 50 52 56 60 62 65 69 71 72 72 73 76 78 80 84 88 92 97 104 110
192 185 184 185 188 192 191 190 194 200 205 209 211 209 214 236 268 290 296 287 252 233 240 234 227 227 219 180 267 250 224 218 211 147 121 141 158 244 231 148 40 352 340 356 7 3 8 12 3 356 3 5 2 10 22 25 26 34 41 44 47 51 54 52 49 50 51 51 53 56 59 62 66 68 71 72 72 72 72 71 71 73 78 83 89 99 107
195 186 188 191 193 197 198 199 204 209 209 208 210 213 218 235 261 281 286 278 257 251 241 223 225 241 235 165 199 230 226 214 192 165 169 187 291 301 295 360 13 343 340 2 10 1 4 7 1 6 15 9 1 15 30 27 23 34 47 52 54 57 59 58 58 56 55 55 56 57 59 63 67 70 72 73 72 70 72 73 73 73 77 82 88 95 102
202 196 197 199 199 201 204 206 210 214 215 214 215 216 221 233 255 269 258 234 232 249 246 215 208 219 215 200 208 228 229 219 207 199 192 173 167 283 300 329 339 333 344 5 4 352 7 18 11 12 17 15 12 21 28 24 27 41 50 54 58 60 58 59 60 60 59 60 61 61 62 65 68 70 72 74 74 75 77 80 82 84 88 91 94 97 101
208 206 206 204 200 202 207 211 214 217 221 222 221 221 223 229 242 256 247 228 220 231 241 230 220 215 210 211 219 227 221 214 214 215 208 195 196 211 232 286 317 325 341 4 5 360 19 30 26 21 20 19 24 32 31 27 35 46 51 53 57 58 59 62 64 62 62 63 63 64 65 66 68 70 72 73 75 78 79 81 85 91 96 100 103 105 107
212 211 212 210 205 204 208 213 217 221 225 227 227 226 230 235 239 245 244 236 226 218 222 228 228 221 216 219 226 233 234 229 221 222 233 239 210 171 160 185 317 333 358 33 34 17 27 42 40 31 27 32 43 46 40 36 43 49 52 57 60 60 62 67 68 67 66 66 65 65 66 66 66 69 71 72 74 76 78 80 84 87 91 96 102 106 108
217 216 215 215 215 215 215 217 218 221 226 229 230 229 231 235 238 239 238 239 236 225 215 217 222 223 222 222 222 224 229 229 222 225 245 266 248 147 185 232 274 350 41 61 50 13 25 49 44 30 31 49 56 49 39 43 52 56 58 62 65 66 68 71 72 72 71 69 67 67 67 67 67 68 68 70 73 75 77 80 83 84 86 92 96 99 102
223 219 216 217 222 224 219 213 211 214 219 227 235 236 232 232 235 236 236 236 238 233 224 214 211 213 215 217 219 222 225 222 211 208 214 216 207 212 236 247 259 49 64 82 130 166 132 84 50 33 48 63 60 49 45 53 58 59 62 65 67 70 72 73 75 78 79 78 76 75 73 72 72 72 71 71 73 74 76 80 83 84 87 91 93 95 99
230 227 223 222 223 220 212 206 209 215 222 230 238 242 238 235 236 238 237 235 235 235 232 224 216 208 205 208 214 222 233 239 225 197 189 192 189 184 199 211 204 109 85 100 166 165 136 109 73 58 69 68 56 47 54 62 62 62 65 65 64 67 71 73 75 79 81 81 81 80 79 77 77 76 75 75 75 75 78 82 85 86 87 90 93 95 97
235 239 236 228 217 208 203 206 214 221 225 231 238 243 242 238 238 238 236 234 234 235 234 227 218 209 202 202 206 210 216 226 236 207 173 182 186 181 190 206 206 157 112 120 180 186 156 142 128 103 82 68 55 57 70 73 72 72 71 69 69 70 72 73 75 78 80 81 80 80 82 83 82 81 81 80 78 78 80 82 84 87 91 92 91 93 96
221 225 228 225 216 206 201 207 218 225 227 231 236 237 235 234 238 239 236 232 231 233 235 231 223 213 204 201 202 202 201 205 212 210 190 189 190 183 180 190 193 174 156 159 172 172 158 147 134 113 91 72 67 76 81 83 86 86 83 82 82 81 79 79 78 78 79 81 81 81 83 85 86 87 87 87 84 83 84 84 84 86 88 88 88 89 93
233 224 222 223 223 218 212 213 220 225 226 226 227 224 222 228 237 243 241 236 233 233 235 234 230 222 212 205 202 200 198 198 201 202 201 199 196 189 185 189 191 183 170 166 167 166 166 169 163 150 132 102 95 104 105 104 103 101 97 95 94 91 88 87 85 82 82 84 85 84 84 86 87 88 89 90 90 89 89 89 88 87 85 85 86 88 90
256 245 230 223 228 233 230 228 230 232 229 224 220 217 219 228 238 240 236 231 231 235 238 238 234 228 219 211 206 202 197 195 198 200 198 197 198 196 192 192 195 191 181 177 178 177 177 180 177 168 156 140 132 133 130 123 117 113 109 106 103 100 95 93 92 90 88 88 89 89 88 88 88 88 88 89 91 92 93 93 93 92 90 91 92 93 93